Time,TemperatureF,DewpointF,PressureIn,WindDirection,WindDirectionDegrees,WindSpeedMPH,WindSpeedGustMPH,Humidity,HourlyPrecipIn,Conditions,Clouds,dailyrainin,SoftwareType,DateUTC
2013-03-16 00:02:00,46.0,41.0,29.75,SE,130,1.0,6.0,83,0.00,,,0.00,,2013-03-16 04:02:00,
2013-03-16 00:12:00,46.0,41.0,29.75,SE,130,1.0,6.0,83,0.00,,,0.00,,2013-03-16 04:12:00,
2013-03-16 00:22:00,45.0,40.0,29.72,ENE,76,3.0,5.0,83,0.00,,,0.00,,2013-03-16 04:22:00,
2013-03-16 00:32:00,45.0,40.0,29.71,SE,139,2.0,6.0,83,0.00,,,0.00,,2013-03-16 04:32:00,
2013-03-16 00:42:00,45.0,40.0,29.71,SE,139,2.0,6.0,83,0.00,,,0.00,,2013-03-16 04:42:00,
2013-03-16 00:53:00,44.0,39.0,29.70,SE,132,4.0,9.0,83,0.00,,,0.00,,2013-03-16 04:53:00,
2013-03-16 01:02:00,44.0,39.0,29.69,SE,142,4.0,8.0,82,0.00,,,0.00,,2013-03-16 05:02:00,
2013-03-16 01:12:00,44.0,39.0,29.69,SE,142,4.0,8.0,82,0.00,,,0.00,,2013-03-16 05:12:00,
2013-03-16 01:21:00,44.0,39.0,29.70,SSE,155,3.0,6.0,81,0.00,,,0.00,,2013-03-16 05:21:00,
2013-03-16 01:32:00,44.0,39.0,29.70,SSE,155,3.0,6.0,81,0.00,,,0.00,,2013-03-16 05:32:00,
2013-03-16 01:42:00,44.0,39.0,29.70,SSE,155,3.0,6.0,81,0.00,,,0.00,,2013-03-16 05:42:00,
2013-03-16 01:52:00,44.0,39.0,29.66,SE,139,2.0,6.0,83,0.00,,,0.00,,2013-03-16 05:52:00,
2013-03-16 02:02:00,44.0,39.0,29.67,East,97,2.0,5.0,83,0.00,,,0.00,,2013-03-16 06:02:00,
2013-03-16 02:12:00,44.0,39.0,29.67,East,97,2.0,5.0,83,0.00,,,0.00,,2013-03-16 06:12:00,
2013-03-16 02:22:00,44.0,39.0,29.67,ENE,73,2.0,4.0,83,0.00,,,0.00,,2013-03-16 06:22:00,
2013-03-16 02:32:00,44.0,39.0,29.66,SSE,167,2.0,6.0,83,0.00,,,0.00,,2013-03-16 06:32:00,
2013-03-16 02:42:00,44.0,39.0,29.66,SSE,167,2.0,6.0,83,0.00,,,0.00,,2013-03-16 06:42:00,
2013-03-16 02:52:00,43.0,38.0,29.65,SE,141,1.0,4.0,84,0.00,,,0.00,,2013-03-16 06:52:00,
2013-03-16 03:02:00,43.0,39.0,29.64,South,177,3.0,3.0,85,0.00,,,0.00,,2013-03-16 07:02:00,
2013-03-16 03:12:00,43.0,39.0,29.64,South,177,3.0,3.0,85,0.00,,,0.00,,2013-03-16 07:12:00,
2013-03-16 03:22:00,42.0,38.0,29.64,SSE,148,1.0,3.0,86,0.00,,,0.00,,2013-03-16 07:22:00,
2013-03-16 03:32:00,42.0,38.0,29.64,NE,53,1.0,3.0,87,0.00,,,0.00,,2013-03-16 07:32:00,
2013-03-16 03:42:00,42.0,38.0,29.64,NE,53,1.0,3.0,87,0.00,,,0.00,,2013-03-16 07:42:00,
2013-03-16 03:52:00,42.0,39.0,29.64,ENE,58,1.0,4.0,88,0.00,,,0.00,,2013-03-16 07:52:00,
2013-03-16 04:02:00,42.0,38.0,29.64,ENE,59,0.0,1.0,87,0.00,,,0.00,,2013-03-16 08:02:00,
2013-03-16 04:12:00,42.0,38.0,29.64,ENE,59,0.0,1.0,87,0.00,,,0.00,,2013-03-16 08:12:00,
2013-03-16 04:23:00,42.0,39.0,29.63,ENE,59,1.0,2.0,88,0.00,,,0.00,,2013-03-16 08:23:00,
2013-03-16 04:32:00,42.0,39.0,29.63,ENE,59,1.0,2.0,88,0.00,,,0.00,,2013-03-16 08:32:00,
2013-03-16 04:42:00,42.0,39.0,29.63,ENE,59,1.0,2.0,88,0.00,,,0.00,,2013-03-16 08:42:00,
2013-03-16 04:52:00,42.0,39.0,29.63,ENE,59,1.0,2.0,88,0.00,,,0.00,,2013-03-16 08:52:00,
2013-03-16 05:01:00,41.0,38.0,29.63,NE,36,3.0,5.0,88,0.00,,,0.00,,2013-03-16 09:01:00,
2013-03-16 05:12:00,41.0,38.0,29.63,NE,36,3.0,5.0,88,0.00,,,0.00,,2013-03-16 09:12:00,
2013-03-16 05:22:00,41.0,38.0,29.63,NE,39,1.0,3.0,89,0.00,,,0.00,,2013-03-16 09:22:00,
2013-03-16 05:33:00,41.0,38.0,29.63,NE,39,1.0,3.0,89,0.00,,,0.00,,2013-03-16 09:33:00,
2013-03-16 05:42:00,41.0,38.0,29.63,NE,39,1.0,3.0,89,0.00,,,0.00,,2013-03-16 09:42:00,
2013-03-16 05:53:00,41.0,38.0,29.63,NE,39,1.0,3.0,89,0.00,,,0.00,,2013-03-16 09:53:00,
2013-03-16 06:03:00,40.0,38.0,29.62,NE,36,3.0,4.0,92,0.00,,,0.00,,2013-03-16 10:03:00,
2013-03-16 06:12:00,40.0,38.0,29.62,NE,36,3.0,4.0,92,0.00,,,0.00,,2013-03-16 10:12:00,
2013-03-16 06:23:00,40.0,38.0,29.61,SE,126,1.0,2.0,91,0.00,,,0.00,,2013-03-16 10:23:00,
2013-03-16 06:32:00,40.0,38.0,29.61,SE,126,1.0,2.0,91,0.00,,,0.00,,2013-03-16 10:32:00,
2013-03-16 06:42:00,40.0,38.0,29.61,SE,126,1.0,2.0,91,0.00,,,0.00,,2013-03-16 10:42:00,
2013-03-16 06:53:00,40.0,38.0,29.64,NNW,347,2.0,5.0,92,0.00,,,0.00,,2013-03-16 10:53:00,
2013-03-16 07:03:00,40.0,38.0,29.64,NNW,347,2.0,5.0,92,0.00,,,0.00,,2013-03-16 11:03:00,
2013-03-16 07:12:00,40.0,38.0,29.64,NNW,347,2.0,5.0,92,0.00,,,0.00,,2013-03-16 11:12:00,
2013-03-16 07:22:00,39.0,37.0,29.66,NNE,20,3.0,5.0,92,0.00,,,0.00,,2013-03-16 11:22:00,
2013-03-16 07:32:00,39.0,37.0,29.67,North,359,4.0,8.0,92,0.00,,,0.00,,2013-03-16 11:32:00,
2013-03-16 07:43:00,39.0,37.0,29.67,North,359,4.0,8.0,92,0.00,,,0.00,,2013-03-16 11:43:00,
2013-03-16 07:52:00,39.0,37.0,29.67,North,358,4.0,6.0,93,0.00,,,0.00,,2013-03-16 11:52:00,
2013-03-16 08:02:00,39.0,37.0,29.67,North,358,4.0,6.0,93,0.00,,,0.00,,2013-03-16 12:02:00,
2013-03-16 08:12:00,39.0,37.0,29.67,North,358,4.0,6.0,93,0.00,,,0.00,,2013-03-16 12:12:00,
2013-03-16 08:22:00,38.0,36.0,29.68,North,11,6.0,9.0,94,0.00,,,0.00,,2013-03-16 12:22:00,
2013-03-16 08:32:00,38.0,37.0,29.68,NE,36,6.0,12.0,95,0.00,,,0.00,,2013-03-16 12:32:00,
2013-03-16 08:43:00,38.0,37.0,29.68,NE,36,6.0,12.0,95,0.00,,,0.00,,2013-03-16 12:43:00,
2013-03-16 08:52:00,38.0,37.0,29.69,NE,37,7.0,10.0,95,0.00,,,0.00,,2013-03-16 12:52:00,
2013-03-16 09:02:00,38.0,37.0,29.70,North,354,3.0,8.0,96,0.00,,,0.00,,2013-03-16 13:02:00,
2013-03-16 09:12:00,38.0,37.0,29.70,North,354,3.0,8.0,96,0.00,,,0.00,,2013-03-16 13:12:00,
2013-03-16 09:22:00,38.0,37.0,29.70,NE,41,5.0,7.0,96,0.00,,,0.00,,2013-03-16 13:22:00,
2013-03-16 09:32:00,38.0,37.0,29.72,North,359,5.0,7.0,97,0.00,,,0.00,,2013-03-16 13:32:00,
2013-03-16 09:42:00,38.0,37.0,29.72,North,359,5.0,7.0,97,0.00,,,0.00,,2013-03-16 13:42:00,
2013-03-16 09:52:00,39.0,38.0,29.72,NE,43,6.0,9.0,97,0.00,,,0.00,,2013-03-16 13:52:00,
2013-03-16 10:02:00,39.0,38.0,29.74,North,358,6.0,9.0,97,0.00,,,0.00,,2013-03-16 14:02:00,
2013-03-16 10:12:00,39.0,38.0,29.74,North,358,6.0,9.0,97,0.00,,,0.00,,2013-03-16 14:12:00,
2013-03-16 10:22:00,40.0,39.0,29.75,North,349,5.0,9.0,97,0.00,,,0.00,,2013-03-16 14:22:00,
2013-03-16 10:32:00,40.0,39.0,29.76,NW,315,5.0,9.0,96,0.00,,,0.00,,2013-03-16 14:32:00,
2013-03-16 10:42:00,40.0,39.0,29.76,NW,315,5.0,9.0,96,0.00,,,0.00,,2013-03-16 14:42:00,
2013-03-16 10:52:00,41.0,40.0,29.77,NNW,328,7.0,13.0,95,0.00,,,0.00,,2013-03-16 14:52:00,
2013-03-16 11:02:00,41.0,39.0,29.78,WNW,297,6.0,13.0,94,0.00,,,0.00,,2013-03-16 15:02:00,
2013-03-16 11:12:00,41.0,39.0,29.78,WNW,297,6.0,13.0,94,0.00,,,0.00,,2013-03-16 15:12:00,
2013-03-16 11:22:00,40.0,39.0,29.80,NW,316,5.0,13.0,95,0.00,,,0.00,,2013-03-16 15:22:00,
2013-03-16 11:33:00,39.0,38.0,29.80,NNE,12,9.0,20.0,95,0.00,,,0.00,,2013-03-16 15:33:00,
2013-03-16 11:43:00,39.0,38.0,29.80,NNE,12,9.0,20.0,95,0.00,,,0.00,,2013-03-16 15:43:00,
2013-03-16 11:53:00,39.0,38.0,29.81,NNE,19,6.0,15.0,96,0.00,,,0.00,,2013-03-16 15:53:00,
2013-03-16 12:03:00,39.0,38.0,29.82,NNW,329,7.0,13.0,96,0.00,,,0.00,,2013-03-16 16:03:00,
2013-03-16 12:12:00,39.0,38.0,29.82,NNW,329,7.0,13.0,96,0.00,,,0.00,,2013-03-16 16:12:00,
2013-03-16 12:22:00,39.0,38.0,29.82,NNW,329,7.0,13.0,96,0.00,,,0.00,,2013-03-16 16:22:00,
2013-03-16 12:33:00,39.0,37.0,29.83,NE,39,8.0,17.0,92,0.00,,,0.00,,2013-03-16 16:33:00,
2013-03-16 12:42:00,39.0,37.0,29.83,NE,39,8.0,17.0,92,0.00,,,0.00,,2013-03-16 16:42:00,
2013-03-16 12:53:00,39.0,37.0,29.85,NW,321,9.0,17.0,92,0.00,,,0.00,,2013-03-16 16:53:00,
2013-03-16 13:03:00,39.0,37.0,29.85,NNW,338,6.0,17.0,92,0.00,,,0.00,,2013-03-16 17:03:00,
2013-03-16 13:12:00,39.0,37.0,29.85,NNW,338,6.0,17.0,92,0.00,,,0.00,,2013-03-16 17:12:00,
2013-03-16 13:22:00,39.0,36.0,29.87,NNW,330,7.0,17.0,90,0.00,,,0.00,,2013-03-16 17:22:00,
2013-03-16 13:32:00,38.0,35.0,29.88,NNE,13,10.0,16.0,89,0.00,,,0.00,,2013-03-16 17:32:00,
2013-03-16 13:42:00,38.0,35.0,29.88,NNE,13,10.0,16.0,89,0.00,,,0.00,,2013-03-16 17:42:00,
2013-03-16 13:53:00,38.0,35.0,29.89,NNE,25,12.0,22.0,89,0.00,,,0.00,,2013-03-16 17:53:00,
2013-03-16 14:02:00,38.0,35.0,29.90,NNE,15,8.0,17.0,88,0.00,,,0.00,,2013-03-16 18:02:00,
2013-03-16 14:13:00,38.0,35.0,29.90,NNE,15,8.0,17.0,88,0.00,,,0.00,,2013-03-16 18:13:00,
2013-03-16 14:22:00,37.0,34.0,29.91,NNE,23,10.0,17.0,87,0.00,,,0.00,,2013-03-16 18:22:00,
2013-03-16 14:32:00,37.0,34.0,29.92,North,4,8.0,15.0,88,0.00,,,0.00,,2013-03-16 18:32:00,
2013-03-16 14:42:00,37.0,34.0,29.92,North,4,8.0,15.0,88,0.00,,,0.00,,2013-03-16 18:42:00,
2013-03-16 14:53:00,38.0,34.0,29.92,North,349,4.0,12.0,87,0.00,,,0.00,,2013-03-16 18:53:00,
2013-03-16 15:02:00,38.0,34.0,29.92,NNW,340,7.0,14.0,85,0.00,,,0.00,,2013-03-16 19:02:00,
2013-03-16 15:12:00,38.0,34.0,29.92,NNW,340,7.0,14.0,85,0.00,,,0.00,,2013-03-16 19:12:00,
2013-03-16 15:22:00,38.0,34.0,29.92,North,357,8.0,15.0,84,0.00,,,0.00,,2013-03-16 19:22:00,
2013-03-16 15:32:00,38.0,34.0,29.93,NNW,336,6.0,13.0,84,0.00,,,0.00,,2013-03-16 19:32:00,
2013-03-16 15:42:00,38.0,34.0,29.93,NNW,336,6.0,13.0,84,0.00,,,0.00,,2013-03-16 19:42:00,
2013-03-16 15:53:00,37.0,32.0,29.93,North,1,11.0,19.0,82,0.00,,,0.00,,2013-03-16 19:53:00,
2013-03-16 16:02:00,37.0,32.0,29.93,NNE,27,8.0,16.0,83,0.00,,,0.00,,2013-03-16 20:02:00,
2013-03-16 16:12:00,37.0,32.0,29.93,NNE,27,8.0,16.0,83,0.00,,,0.00,,2013-03-16 20:12:00,
2013-03-16 16:22:00,37.0,32.0,29.94,NNE,29,9.0,15.0,82,0.00,,,0.00,,2013-03-16 20:22:00,
2013-03-16 16:32:00,37.0,32.0,29.94,WNW,303,6.0,15.0,82,0.00,,,0.00,,2013-03-16 20:32:00,
2013-03-16 16:42:00,37.0,32.0,29.94,WNW,303,6.0,15.0,82,0.00,,,0.00,,2013-03-16 20:42:00,
2013-03-16 16:52:00,36.0,31.0,29.96,NNE,29,7.0,15.0,82,0.00,,,0.00,,2013-03-16 20:52:00,
2013-03-16 17:02:00,36.0,31.0,29.96,NNE,29,7.0,15.0,82,0.00,,,0.00,,2013-03-16 21:02:00,
2013-03-16 17:12:00,36.0,31.0,29.96,NNE,29,7.0,15.0,82,0.00,,,0.00,,2013-03-16 21:12:00,
2013-03-16 17:22:00,36.0,31.0,29.98,NNW,343,7.0,14.0,81,0.00,,,0.00,,2013-03-16 21:22:00,
2013-03-16 17:32:00,36.0,31.0,29.98,NNW,338,7.0,14.0,81,0.00,,,0.00,,2013-03-16 21:32:00,
2013-03-16 17:43:00,36.0,31.0,29.98,NNW,338,7.0,14.0,81,0.00,,,0.00,,2013-03-16 21:43:00,
2013-03-16 17:53:00,36.0,31.0,29.98,NNE,23,6.0,10.0,82,0.00,,,0.00,,2013-03-16 21:53:00,
2013-03-16 18:03:00,35.0,30.0,29.99,NNE,14,7.0,11.0,81,0.00,,,0.00,,2013-03-16 22:03:00,
2013-03-16 18:12:00,35.0,30.0,29.99,NNE,14,7.0,11.0,81,0.00,,,0.00,,2013-03-16 22:12:00,
2013-03-16 18:22:00,35.0,29.0,30.00,NNE,13,7.0,10.0,80,0.00,,,0.00,,2013-03-16 22:22:00,
2013-03-16 18:33:00,35.0,30.0,30.00,North,9,5.0,8.0,81,0.00,,,0.00,,2013-03-16 22:33:00,
2013-03-16 18:42:00,35.0,30.0,30.00,North,9,5.0,8.0,81,0.00,,,0.00,,2013-03-16 22:42:00,
2013-03-16 18:52:00,35.0,30.0,30.00,North,356,4.0,9.0,81,0.00,,,0.00,,2013-03-16 22:52:00,
2013-03-16 19:02:00,35.0,29.0,30.01,North,358,6.0,10.0,80,0.00,,,0.00,,2013-03-16 23:02:00,
2013-03-16 19:12:00,35.0,29.0,30.01,North,358,6.0,10.0,80,0.00,,,0.00,,2013-03-16 23:12:00,
2013-03-16 19:22:00,35.0,29.0,30.01,NNE,17,5.0,12.0,80,0.00,,,0.00,,2013-03-16 23:22:00,
2013-03-16 19:32:00,34.0,28.0,30.01,NNE,27,9.0,13.0,80,0.00,,,0.00,,2013-03-16 23:32:00,
2013-03-16 19:42:00,34.0,28.0,30.01,NNE,27,9.0,13.0,80,0.00,,,0.00,,2013-03-16 23:42:00,
2013-03-16 19:52:00,34.0,29.0,30.01,NNE,25,7.0,11.0,81,0.00,,,0.00,,2013-03-16 23:52:00,
2013-03-16 20:01:00,34.0,29.0,30.01,North,11,6.0,11.0,81,0.00,,,0.00,,2013-03-17 00:01:00,
2013-03-16 20:12:00,34.0,29.0,30.01,North,11,6.0,11.0,81,0.00,,,0.00,,2013-03-17 00:12:00,
2013-03-16 20:22:00,33.0,28.0,30.01,NNE,32,8.0,12.0,81,0.00,,,0.00,,2013-03-17 00:22:00,
2013-03-16 20:32:00,33.0,28.0,30.01,NNE,14,8.0,11.0,81,0.00,,,0.00,,2013-03-17 00:32:00,
2013-03-16 20:42:00,33.0,28.0,30.01,NNE,14,8.0,11.0,81,0.00,,,0.00,,2013-03-17 00:42:00,
2013-03-16 20:52:00,33.0,28.0,30.02,NE,53,4.0,7.0,81,0.00,,,0.00,,2013-03-17 00:52:00,
2013-03-16 21:02:00,33.0,28.0,30.03,North,5,6.0,10.0,81,0.00,,,0.00,,2013-03-17 01:02:00,
2013-03-16 21:12:00,33.0,28.0,30.03,North,5,6.0,10.0,81,0.00,,,0.00,,2013-03-17 01:12:00,
2013-03-16 21:22:00,33.0,28.0,30.04,NNE,19,3.0,9.0,82,0.00,,,0.00,,2013-03-17 01:22:00,
2013-03-16 21:32:00,33.0,28.0,30.05,NE,42,4.0,6.0,83,0.00,,,0.00,,2013-03-17 01:32:00,
2013-03-16 21:42:00,33.0,28.0,30.05,NE,42,4.0,6.0,83,0.00,,,0.00,,2013-03-17 01:42:00,
2013-03-16 21:53:00,32.0,27.0,30.06,NNW,341,4.0,6.0,82,0.00,,,0.00,,2013-03-17 01:53:00,
2013-03-16 22:02:00,32.0,27.0,30.07,NNW,335,2.0,7.0,82,0.00,,,0.00,,2013-03-17 02:02:00,
2013-03-16 22:12:00,32.0,27.0,30.07,NNW,335,2.0,7.0,82,0.00,,,0.00,,2013-03-17 02:12:00,
2013-03-16 22:22:00,32.0,27.0,30.07,NNE,29,3.0,7.0,81,0.00,,,0.00,,2013-03-17 02:22:00,
2013-03-16 22:33:00,32.0,27.0,30.08,NE,39,3.0,5.0,81,0.00,,,0.00,,2013-03-17 02:33:00,
2013-03-16 22:42:00,32.0,27.0,30.08,NE,39,3.0,5.0,81,0.00,,,0.00,,2013-03-17 02:42:00,
2013-03-16 22:52:00,32.0,27.0,30.08,NE,40,3.0,6.0,82,0.00,,,0.00,,2013-03-17 02:52:00,
2013-03-16 23:02:00,32.0,27.0,30.09,NNE,25,4.0,7.0,82,0.00,,,0.00,,2013-03-17 03:02:00,
2013-03-16 23:12:00,32.0,27.0,30.09,NNE,25,4.0,7.0,82,0.00,,,0.00,,2013-03-17 03:12:00,
2013-03-16 23:22:00,32.0,27.0,30.09,NNE,18,3.0,6.0,81,0.00,,,0.00,,2013-03-17 03:22:00,
2013-03-16 23:33:00,32.0,27.0,30.09,NNE,18,3.0,6.0,81,0.00,,,0.00,,2013-03-17 03:33:00,
2013-03-16 23:43:00,32.0,27.0,30.09,NNE,18,3.0,6.0,81,0.00,,,0.00,,2013-03-17 03:43:00,
2013-03-16 23:53:00,32.0,27.0,30.09,NNE,32,6.0,7.0,80,0.00,,,0.00,,2013-03-17 03:53:00,